This demonstration page uses our WeatherBlox Daily Observations layout. Learn more.

Left ArrowRight Arrow

38.83388, -104.82136

Hourly Observations for January 22, 2021

Temp ( °F °C ) Dew Point ( °F °C ) Humidity (%) Winds ( mph kmh ) Pressure ( in mb ) Visibility ( mi km ) Precip ( " mm )
12:54 am 00:54 Clear 26 -3.3 12 -11.1 55 55 SE 6 9 30.00 1016 10 16 0.00 0.00
1:54 am 01:54 Clear 26 -3.3 11 -11.7 53 53 SE 6 9 30.01 1016 10 16 0.00 0.00
2:54 am 02:54 Partly Cloudy 25 -3.9 11 -11.7 55 55 E 8 13 30.01 1016 10 16 0.00 0.00
3:54 am 03:54 Mostly Cloudy 23 -5 11 -11.7 60 60 E 9 15 30.02 1017 10 16 0.00 0.00
4:54 am 04:54 Mostly Cloudy 22 -5.6 11 -11.7 63 63 E 6 9 30.05 1018 10 16 0.00 0.00
5:54 am 05:54 Mostly Cloudy 20 -6.7 10 -12.2 65 65 NNE 5 7 30.07 1018 10 16 0.00 0.00
6:54 am 06:54 Mostly Clear 17 -8.3 9 -12.8 70 70 NE 5 7 30.07 1018 10 16 0.00 0.00
7:54 am 07:54 Mostly Sunny 21 -6.1 12 -11.1 68 68 N 5 7 30.07 1018 10 16 0.00 0.00
8:54 am 08:54 Mostly Sunny 26 -3.3 14 -10 60 60 Calm 30.07 1018 10 16 0.00 0.00
9:54 am 09:54 Partly Cloudy 32 0 15 -9.4 50 50 WSW 3 6 30.04 1017 10 16 0.00 0.00
10:54 am 10:54 Partly Cloudy 35 1.7 16 -8.9 46 46 S 6 9 30.01 1016 10 16 0.00 0.00
11:54 am 11:54 Partly Cloudy 39 3.9 16 -8.9 39 39 SSE 3 6 29.97 1015 10 16 0.00 0.00
12:54 pm 12:54 Partly Cloudy 43 6.1 16 -8.9 34 34 SSE 8 13 29.93 1014 10 16 0.00 0.00
1:54 pm 13:54 Partly Cloudy 43 6.1 17 -8.3 35 35 SSE 10 17 29.92 1013 10 16 0.00 0.00
2:54 pm 14:54 Mostly Cloudy 43 6.1 17 -8.3 35 35 SSE 10 17 29.92 1013 10 16 0.00 0.00
3:54 pm 15:54 Mostly Cloudy 40 4.4 16 -8.9 38 38 SSE 13 20 29.95 1014 10 16 0.00 0.00
4:54 pm 16:54 Mostly Cloudy 37 2.8 16 -8.9 42 42 SSE 7 11 29.97 1015 10 16 0.00 0.00
5:54 pm 17:54 Mostly Cloudy 34 1.1 16 -8.9 48 48 SE 10 17 30.00 1016 10 16 0.00 0.00
6:54 pm 18:54 Mostly Cloudy 34 1.1 16 -8.9 48 48 E 9 15 30.01 1016 10 16 0.00 0.00
7:54 pm 19:54 Mostly Cloudy 30 -1.1 16 -8.9 56 56 Calm 30.00 1016 10 16 0.00 0.00
8:54 pm 20:54 Mostly Cloudy 29 -1.7 17 -8.3 61 61 Calm 29.97 1015 10 16 0.00 0.00
9:54 pm 21:54 Mostly Cloudy 28 -2.2 17 -8.3 63 63 ENE 7 11 29.95 1014 10 16 0.00 0.00
10:54 pm 22:54 Partly Cloudy 27 -2.8 19 -7.2 72 72 ENE 8 13 29.91 1013 10 16 0.00 0.00
11:54 pm 23:54 Mostly Cloudy 23 -5 17 -8.3 78 78 NE 7 11 29.89 1012 10 16 0.00 0.00

Powered by AerisWeather